Overview Statistics Trail Chart Weather Telemetry Raw packets
 

This is the latest recevied weather packets stored in our database for station/object W5ITZ. If no packets are shown the sender has not sent any weather packets the latest 10 day(s).

<< 38 39 40 41 42 43 44 >>
Time Temp. Humidity Pressure Rain* Wind** Luminosity Snow
1787967645 27.78° C 74% 1014.8 hPa 0 mm - 0 W/m² -
1787967345 27.78° C 72% 1015 hPa 0 mm - 0 W/m² -
1787967041 27.78° C 72% 1015.2 hPa 0 mm - 0 W/m² -
1787966738 28.33° C 71% 1015.1 hPa 0 mm - 0 W/m² -
1787966437 28.33° C 70% 1015.1 hPa 0 mm - 0 W/m² -
1787966132 28.33° C 69% 1015.2 hPa 0 mm - 0 W/m² -
1787965831 28.89° C 70% 1015.2 hPa 0 mm - 0 W/m² -
1787965526 28.89° C 70% 1015.3 hPa 0 mm - 0 W/m² -
1787965221 28.89° C 69% 1015.2 hPa 0 mm - 1 W/m² -
1787964915 28.89° C 69% 1015.2 hPa 0 mm - 2 W/m² -
1787964610 29.44° C 68% 1015.7 hPa 0 mm - 5 W/m² -
1787964316 29.44° C 68% 1015.8 hPa 0 mm - 9 W/m² -
1787964004 29.44° C 67% 1015.9 hPa 0 mm - 14 W/m² -
1787963699 30° C 67% 1015.8 hPa 0 mm - 20 W/m² -
1787963398 30° C 66% 1015.7 hPa 0 mm - 26 W/m² -
1787963094 30° C 66% 1015.6 hPa 0 mm - 34 W/m² -
1787962793 30.56° C 65% 1015.2 hPa 0 mm - 42 W/m² -
1787962492 30.56° C 65% 1015.1 hPa 0 mm - 55 W/m² -
1787962191 30° C 65% 1014.9 hPa 0 mm - 69 W/m² -
1787961886 30° C 65% 1014.9 hPa 0 mm - 102 W/m² -
1787961584 30° C 66% 1014.9 hPa 0 mm - 125 W/m² -
1787961278 30° C 66% 1015.4 hPa 0 mm - 113 W/m² -
1787960973 30° C 66% 1015.3 hPa 0 mm - 105 W/m² -
1787960669 30° C 66% 1015.3 hPa 0 mm - 89 W/m² -
1787960367 30° C 65% 1015.7 hPa 0 mm - 104 W/m² -

* Rain latest hour (hover to see other rain measurements)
** Current wind speed in m/s (hover to see current wind gust speed)